Weather History for Wright-Patt AFB, OH

Change the Weather History Date:

Monday, August 19, 2013

  Actual Average Record
Temperature  
Mean Temperature 71 °F -  
Max Temperature 82 °F 81 °F 91 °F (2004)
Min Temperature 60 °F 60 °F 48 °F (1998)
Cooling Degree Days 6    
Growing Degree Days 21 (Base 50)    
Moisture  
Dew Point 61 °F    
Average Humidity 82    
Maximum Humidity 100    
Minimum Humidity 43    
Precipitation  
Precipitation 0.00 in - - ()
Sea Level Pressure  
Sea Level Pressure 30.14 in    
Wind  
Wind Speed 2 mph (North)    
Max Wind Speed 7 mph    
Max Gust Speed -    
Visibility 6 miles    
Events Fog    
Averages and records for this station are not official NWS values.
T = Trace of Precipitation, MM = Missing Value Source: NWS Daily Summary

Daily Weather History Graph

Daily Weather History Graph

Search for Another Location

Airport:

Trip Planner

Search our weather history database for the weather conditions in past years. The results will help you decide how hot, cold, wet, or windy it might be!

Date:

Astronomy

Aug. 19, 2013 Rise Set
Actual Time 6:52 AM EDT 8:26 PM EDT
Civil Twilight 6:23 AM EDT 8:55 PM EDT
Nautical Twilight 5:49 AM EDT 9:29 PM EDT
Astronomical Twilight 5:12 AM EDT 10:05 PM EDT
Moon 7:17 PM EDT (8/19) 5:10 AM EDT (8/19)
Length of Visible Light 14h 31m
Length of Day
13h 34m
Waxing Gibbous, 97% of the Moon is Illuminated
Aug 19
Waxing Gibbous
Aug 20
Full
Aug 28
Last Quarter
Sep 5
New
Sep 12
First Quarter

Hourly Weather History & Observations

Time (EDT) Temp. Heat Index Dew Point Humidity Pressure Visibility Wind Dir Wind Speed Gust Speed Precip Events Conditions
12:58 AM 66.6 °F - 64.8 °F 94% 30.15 in 10.0 mi SE 1.2 mph - N/A   Clear
1:18 AM 66.2 °F - 64.4 °F 94% 30.14 in 5.0 mi Calm Calm - N/A   Clear
1:28 AM 66.2 °F - 64.4 °F 94% 30.14 in 10.0 mi Calm Calm - N/A   Clear
1:48 AM 66.2 °F - 64.4 °F 94% 30.14 in 3.0 mi Calm Calm - N/A   Clear
1:58 AM 64.9 °F - 63.3 °F 94% 30.14 in 7.0 mi Calm Calm - N/A   Clear
2:18 AM 64.4 °F - 62.6 °F 94% 30.14 in 10.0 mi Calm Calm - N/A   Clear
2:28 AM 64.4 °F - 62.6 °F 94% 30.13 in 7.0 mi Calm Calm - N/A   Clear
2:38 AM 64.4 °F - 62.6 °F 94% 30.13 in 2.0 mi WSW 1.2 mph - N/A   Clear
2:48 AM 64.4 °F - 62.6 °F 94% 30.14 in 6.0 mi WSW 2.3 mph - N/A   Clear
2:58 AM 64.6 °F - 63.1 °F 95% 30.14 in 6.0 mi West 2.3 mph - N/A   Clear
3:58 AM 61.2 °F - 60.8 °F 99% 30.13 in 6.0 mi Calm Calm - N/A   Clear
4:58 AM 62.4 °F - 60.6 °F 94% 30.14 in 3.0 mi NNE 3.5 mph - N/A   Clear
5:20 AM 60.8 °F - 60.8 °F 100% 30.14 in 0.1 mi Calm Calm - N/A Fog Fog
5:28 AM 60.8 °F - 60.8 °F 100% 30.14 in 0.2 mi NNE 2.3 mph - N/A Fog Fog
5:38 AM 60.8 °F - 60.8 °F 100% 30.14 in 0.2 mi NNE 4.6 mph - N/A Fog Fog
5:48 AM 60.8 °F - 60.8 °F 100% 30.14 in 0.1 mi North 3.5 mph - N/A Fog Fog
5:58 AM 60.6 °F - 60.4 °F 99% 30.14 in 0.2 mi ENE 2.3 mph - N/A Fog Fog
6:20 AM 60.8 °F - 60.8 °F 100% 30.14 in 0.5 mi NNE 3.5 mph - N/A Fog Fog
6:28 AM 60.8 °F - 60.8 °F 100% 30.14 in 0.5 mi NE 3.5 mph - N/A Fog Fog
6:38 AM 60.8 °F - 60.8 °F 100% 30.15 in 0.1 mi NE 2.3 mph - N/A Fog Fog
6:59 AM 60.8 °F - 60.8 °F 100% 30.15 in 0.1 mi NE 1.2 mph - N/A Fog Fog
7:39 AM 60.8 °F - 60.8 °F 100% 30.15 in 0.2 mi Calm Calm - N/A Fog Fog
7:49 AM 60.8 °F - 60.8 °F 100% 30.16 in 0.4 mi Calm Calm - N/A Fog Fog
7:58 AM 61.5 °F - 61.5 °F 100% 30.16 in 0.4 mi Calm Calm - N/A Fog Fog
8:58 AM 62.8 °F - 62.6 °F 99% 30.16 in 0.4 mi NE 1.2 mph - N/A Fog Fog
9:25 AM 64.4 °F - 62.6 °F 94% 30.16 in 0.5 mi Variable 2.3 mph - N/A Fog Fog
9:42 AM 64.4 °F - 64.4 °F 100% 30.16 in 0.8 mi North 2.3 mph - N/A   Mist
9:44 AM 64.4 °F - 64.4 °F 100% 30.16 in 1.0 mi North 2.3 mph - N/A   Mist
9:57 AM 65.1 °F - 64.6 °F 98% 30.16 in 1.5 mi NE 2.3 mph - N/A   Scattered Clouds
10:13 AM 66.2 °F - 64.4 °F 94% 30.16 in 4.0 mi NW 3.5 mph - N/A   Scattered Clouds
10:56 AM 69.4 °F - 64.0 °F 83% 30.15 in 10.0 mi Variable 2.3 mph - N/A   Partly Cloudy
11:58 AM 76.1 °F - 61.2 °F 60% 30.15 in 10.0 mi NNE 5.8 mph - N/A   Partly Cloudy
12:29 PM 78.8 °F - 57.2 °F 47% 30.15 in 10.0 mi NNE 5.8 mph - N/A   Partly Cloudy
12:30 PM 78.8 °F - 57.2 °F 47% 30.15 in 10.0 mi Variable 4.6 mph - N/A   Partly Cloudy
12:32 PM 78.8 °F - 57.2 °F 47% 30.14 in 10.0 mi North 6.9 mph - N/A   Light Drizzle
12:58 PM 79.3 °F - 59.0 °F 50% 30.13 in 10.0 mi NNE 2.3 mph - N/A   Partly Cloudy
1:58 PM 80.1 °F 80.9 °F 59.7 °F 50% 30.14 in 10.0 mi Variable 4.6 mph - N/A   Partly Cloudy
2:58 PM 82.0 °F 82.4 °F 59.9 °F 47% 30.13 in 10.0 mi Variable 2.3 mph - N/A   Scattered Clouds
3:55 PM 81.7 °F 81.8 °F 58.3 °F 45% 30.11 in 10.0 mi WSW 3.5 mph - N/A   Partly Cloudy
4:58 PM 82.8 °F 82.5 °F 58.5 °F 43% 30.11 in 10.0 mi NW 4.6 mph - N/A   Clear
5:58 PM 81.5 °F 81.6 °F 58.5 °F 45% 30.10 in 10.0 mi North 5.8 mph - N/A   Clear
6:58 PM 80.6 °F 80.9 °F 57.9 °F 46% 30.09 in 10.0 mi North 3.5 mph - N/A   Clear
7:58 PM 79.3 °F - 60.6 °F 53% 30.09 in 10.0 mi Calm Calm - N/A   Clear
8:03 PM 78.8 °F - 59.0 °F 51% 30.09 in 10.0 mi Calm Calm - N/A   Clear
8:55 PM 73.9 °F - 61.2 °F 64% 30.09 in 10.0 mi Calm Calm - N/A   Clear
9:58 PM 70.9 °F - 61.9 °F 73% 30.11 in 10.0 mi North 1.2 mph - 0.00 in   Clear
10:58 PM 69.8 °F - 61.5 °F 75% 30.11 in 10.0 mi Calm Calm - N/A   Clear
11:38 PM 68.0 °F - 60.8 °F 78% 30.12 in 9.0 mi Calm Calm - N/A   Clear
11:58 PM 67.5 °F - 61.0 °F 80% 30.13 in 10.0 mi Calm Calm - N/A   Clear